Location: ????? ????
(37.9717°N, 23.4051°E)
Time: 11:06:20
(UTC+00:00)

SL-27 R/B - Pass Details

Date: 18 April 2024
Orbit: 338 x 362 km, 74.7° (Epoch: 18 May)

Event Time Altitude Azimuth Distance (km) Brightness Sun altitude
Rises 17:41:36 0° 357° (N) 2,161 6.2 -7.6°
Reaches altitude 10° 17:43:53 10° 15° (NNE) 1,306 4.8 -8.0°
Maximum altitude 17:46:06 20° 67° (ENE) 864 3.4 -8.4°
Enters shadow 17:47:47 13° 111° (ESE) 1,134 3.7 -8.7°
